Location: Unspecified
(0.0000°N, 0.0000°E)
Time: 09:20:39
(UTC+00:00)

ARIANE 1 DEB - Pass Details

Date: 16 February 2026
Orbit: 1090 x 21662 km, 16.1° (Epoch: 9 December)

Event Time Altitude Azimuth Distance (km) Brightness Sun altitude
Rises 21:31:00 0° 273° (W) 10,524 ? -47.7°
Reaches altitude 10° 21:36:54 10° 270° (W) 10,818 ? -49.1°
Maximum altitude 02:14:27 70° 173° (S) 13,858 ? -57.7°
Drops below altitude 10° 03:06:39 10° 90° (E) 7,451 ? -45.5°
Sets 03:10:03 0° 88° (E) 7,644 ? -44.7°
